Tracking 32139 objects as of 18-Nov-2025
HD Live streaming from Space Station
objects crossing your sky now

IRIDIUM 33 DEB

Track IRIDIUM 33 DEB now!
10-day predictions


NORAD ID: 35480
Int'l Code: 1997-051QA
Perigee: 724.1 km
Apogee: 744.1 km
Inclination: 86.4 °
Period: 99.3 minutes
Semi major axis: 7105 km
RCS: 0.0115 m2 (small)
Launch date: September 14, 1997
Source: United States (US)
Launch site: TYURATAM MISSILE AND SPACE COMPLEX (TTMTR)

Note: This is SATELLITE DEBRIS
Your satellite tracking list
Your tracking list is empty




NASA's NSSDC Master Catalog

Two Line Element Set (TLE):
1 35480U 97051QA  25320.64057832  .00003419  00000-0  88431-3 0  9993
2 35480  86.3589  36.2214 0014056 183.7307 176.3795 14.49608570866534
Source of the keplerian elements: AFSPC